This is the latest recevied weather packets stored in our database for station/object WB5RFA. If no packets are shown the sender has not sent any weather packets the latest 10 day(s).
| Time | Temp. | Humidity | Pressure | Rain* | Wind** | Luminosity | Snow |
|---|---|---|---|---|---|---|---|
| 1777853591 | 25.56° C | 37% | 1005.8 hPa | 0 mm | - | - | - |
| 1777853111 | 26.11° C | 37% | 1005.9 hPa | 0 mm | - | - | - |
| 1777852630 | 26.11° C | 37% | 1005.9 hPa | 0 mm | - | - | - |
| 1777852151 | 26.11° C | 35% | 1005.9 hPa | 0 mm | - | - | - |
| 1777851672 | 26.67° C | 36% | 1006 hPa | 0 mm | - | - | - |
| 1777851191 | 26.67° C | 36% | 1006.1 hPa | 0 mm | - | - | - |
| 1777850710 | 27.22° C | 34% | 1006 hPa | 0 mm | - | - | - |
| 1777850230 | 27.22° C | 36% | 1006.1 hPa | 0 mm | - | - | - |
| 1777849750 | 27.22° C | 34% | 1006.3 hPa | 0 mm | - | - | - |
| 1777849272 | 27.22° C | 34% | 1006.2 hPa | 0 mm | - | - | - |
| 1777848791 | 27.78° C | 34% | 1006.1 hPa | 0 mm | - | - | - |
| 1777848311 | 27.78° C | 34% | 1006.1 hPa | 0 mm | - | - | - |
| 1777847831 | 28.33° C | 33% | 1006.3 hPa | 0 mm | - | - | - |
| 1777847351 | 28.89° C | 31% | 1006.3 hPa | 0 mm | - | - | - |
| 1777846870 | 28.89° C | 33% | 1006.4 hPa | 0 mm | - | - | - |
| 1777846391 | 28.89° C | 33% | 1006.5 hPa | 0 mm | - | - | - |
| 1777845911 | 28.89° C | 31% | 1006.5 hPa | 0 mm | - | - | - |
| 1777845430 | 28.33° C | 33% | 1006.6 hPa | 0 mm | - | - | - |
| 1777844952 | 28.33° C | 33% | 1006.6 hPa | 0 mm | - | - | - |
| 1777844470 | 28.33° C | 30% | 1006.7 hPa | 0 mm | - | - | - |
| 1777843992 | 28.89° C | 31% | 1006.9 hPa | 0 mm | - | - | - |
| 1777843511 | 28.89° C | 34% | 1006.8 hPa | 0 mm | - | - | - |
| 1777843030 | 28.89° C | 34% | 1007 hPa | 0 mm | - | - | - |
| 1777842552 | 28.33° C | 33% | 1007.2 hPa | 0 mm | - | - | - |
| 1777842071 | 27.78° C | 34% | 1007.4 hPa | 0 mm | - | - | - |
* Rain latest hour (hover to see other rain measurements)
** Current wind speed in m/s (hover to see current wind gust speed)